Year,Month,Day,Hour,Minute,Value (Times are PST for temperature in C)
2016,10,23,09,28,10.30
2016,10,23,09,29,10.30
2016,10,23,09,30,10.40
2016,10,23,09,31,10.50
2016,10,23,09,32,10.50
2016,10,23,09,33,10.60
2016,10,23,09,34,10.60
2016,10,23,09,35,10.70
2016,10,23,09,36,10.70
2016,10,23,09,37,10.70
2016,10,23,09,38,10.70
2016,10,23,09,39,10.80
2016,10,23,09,40,10.80
2016,10,23,09,41,10.90
2016,10,23,09,42,10.90
2016,10,23,09,43,11.00
2016,10,23,09,44,11.00
2016,10,23,09,45,11.00
2016,10,23,09,46,11.10
2016,10,23,09,47,11.10
2016,10,23,09,48,11.10
2016,10,23,09,49,11.20
2016,10,23,09,50,11.20
2016,10,23,09,51,11.20
2016,10,23,09,52,11.20
2016,10,23,09,53,11.20
2016,10,23,09,54,11.20
2016,10,23,09,55,11.20
2016,10,23,09,56,11.20
2016,10,23,09,57,11.20
2016,10,23,09,58,11.20
2016,10,23,09,59,11.20
2016,10,23,10,00,11.20
2016,10,23,10,01,11.20
2016,10,23,10,02,11.20
2016,10,23,10,03,11.30
2016,10,23,10,04,11.30
2016,10,23,10,05,11.30
2016,10,23,10,06,11.30
2016,10,23,10,07,11.30
2016,10,23,10,08,11.40
2016,10,23,10,09,11.40
2016,10,23,10,10,11.40
2016,10,23,10,11,11.40
2016,10,23,10,12,11.40
2016,10,23,10,13,11.40
2016,10,23,10,14,11.40
2016,10,23,10,15,11.40
2016,10,23,10,16,11.40
2016,10,23,10,17,11.50
2016,10,23,10,18,11.50
2016,10,23,10,19,11.50
2016,10,23,10,20,11.50
2016,10,23,10,21,11.60
2016,10,23,10,22,11.60
2016,10,23,10,23,11.60
2016,10,23,10,24,11.60
2016,10,23,10,25,11.60
2016,10,23,10,26,11.60
2016,10,23,10,27,11.60
2016,10,23,10,28,11.70
2016,10,23,10,29,11.70
2016,10,23,10,30,11.70
2016,10,23,10,31,11.70
2016,10,23,10,32,11.70
2016,10,23,10,33,11.80
2016,10,23,10,34,11.80
2016,10,23,10,35,11.80
2016,10,23,10,36,11.80
2016,10,23,10,37,11.90
2016,10,23,10,38,11.90
2016,10,23,10,39,11.90
2016,10,23,10,40,11.90
2016,10,23,10,41,11.90
2016,10,23,10,42,11.90
2016,10,23,10,43,11.90
2016,10,23,10,44,11.90
2016,10,23,10,45,11.90
2016,10,23,10,46,11.90
2016,10,23,10,47,11.90
2016,10,23,10,48,11.90
2016,10,23,10,49,11.90
2016,10,23,10,50,11.90
2016,10,23,10,51,11.90
2016,10,23,10,52,12.00
2016,10,23,10,53,12.00
2016,10,23,10,54,12.10
2016,10,23,10,55,12.10
2016,10,23,10,56,12.10
2016,10,23,10,57,12.00
2016,10,23,10,58,12.00
2016,10,23,10,59,12.00
2016,10,23,11,00,12.00
2016,10,23,11,01,12.00
2016,10,23,11,02,12.00
2016,10,23,11,03,12.10
2016,10,23,11,04,12.10
2016,10,23,11,05,12.00
2016,10,23,11,06,12.00
2016,10,23,11,07,12.00
2016,10,23,11,08,12.10
2016,10,23,11,09,12.10
2016,10,23,11,10,12.10
2016,10,23,11,11,12.00
2016,10,23,11,12,12.00
2016,10,23,11,13,11.90
2016,10,23,11,14,11.90
2016,10,23,11,15,11.90
2016,10,23,11,16,11.90
2016,10,23,11,17,11.90
2016,10,23,11,18,11.90
2016,10,23,11,19,11.90
2016,10,23,11,20,11.90
2016,10,23,11,21,11.90
2016,10,23,11,22,11.90
2016,10,23,11,23,11.90
2016,10,23,11,24,11.90
2016,10,23,11,25,12.00
2016,10,23,11,26,12.00
2016,10,23,11,27,12.00
2016,10,23,11,28,12.10
2016,10,23,11,29,12.10
2016,10,23,11,30,12.20
2016,10,23,11,31,12.20
2016,10,23,11,32,12.20
2016,10,23,11,33,12.20
2016,10,23,11,34,12.20
2016,10,23,11,35,12.30
2016,10,23,11,36,12.30
2016,10,23,11,37,12.30
2016,10,23,11,38,12.20
2016,10,23,11,39,12.20
2016,10,23,11,40,12.30
2016,10,23,11,41,12.30
2016,10,23,11,42,12.20
2016,10,23,11,43,12.20
2016,10,23,11,44,12.20
2016,10,23,11,45,12.20
2016,10,23,11,46,12.20
2016,10,23,11,47,12.20
2016,10,23,11,48,12.20
2016,10,23,11,49,12.20
2016,10,23,11,50,12.20
2016,10,23,11,51,12.30
2016,10,23,11,52,12.30
2016,10,23,11,53,12.30
2016,10,23,11,54,12.40
2016,10,23,11,55,12.40
2016,10,23,11,56,12.40
2016,10,23,11,57,12.40
2016,10,23,11,58,12.40
2016,10,23,11,59,12.40
2016,10,23,12,00,12.40
2016,10,23,12,01,12.40
2016,10,23,12,02,12.50
2016,10,23,12,03,12.50
2016,10,23,12,04,12.50
2016,10,23,12,05,12.50
2016,10,23,12,06,12.60
2016,10,23,12,07,12.60
2016,10,23,12,08,12.60
2016,10,23,12,09,12.70
2016,10,23,12,10,12.70
2016,10,23,12,11,12.70
2016,10,23,12,12,12.70
2016,10,23,12,13,12.70
2016,10,23,12,14,12.70
2016,10,23,12,15,12.70
2016,10,23,12,16,12.70
2016,10,23,12,17,12.60
2016,10,23,12,18,12.60
2016,10,23,12,19,12.60
2016,10,23,12,20,12.70
2016,10,23,12,21,12.70
2016,10,23,12,22,12.70
2016,10,23,12,23,12.70
2016,10,23,12,24,12.70
2016,10,23,12,25,12.70
2016,10,23,12,26,12.70
2016,10,23,12,27,12.70
2016,10,23,12,28,12.70
2016,10,23,12,29,12.80
2016,10,23,12,30,12.80
2016,10,23,12,31,12.90
2016,10,23,12,32,12.90
2016,10,23,12,33,12.90
2016,10,23,12,34,12.90
2016,10,23,12,35,12.90
2016,10,23,12,36,12.90
2016,10,23,12,37,12.80
2016,10,23,12,38,12.80
2016,10,23,12,39,12.80
2016,10,23,12,40,12.80
2016,10,23,12,41,12.80
2016,10,23,12,42,12.80
2016,10,23,12,43,12.90
2016,10,23,12,44,12.90
2016,10,23,12,45,12.90
2016,10,23,12,46,12.90
2016,10,23,12,47,12.90
2016,10,23,12,48,12.90
2016,10,23,12,49,12.80
2016,10,23,12,50,12.80
2016,10,23,12,51,12.70
2016,10,23,12,52,12.70
2016,10,23,12,53,12.70
2016,10,23,12,54,12.70
2016,10,23,12,55,12.70
2016,10,23,12,56,12.70
2016,10,23,12,57,12.60
2016,10,23,12,58,12.60
2016,10,23,12,59,12.60
2016,10,23,13,00,12.60
2016,10,23,13,01,12.60
2016,10,23,13,02,12.60
2016,10,23,13,03,12.60
2016,10,23,13,04,12.60
2016,10,23,13,05,12.60
2016,10,23,13,06,12.60
2016,10,23,13,07,12.60
2016,10,23,13,08,12.60
2016,10,23,13,09,12.60
2016,10,23,13,10,12.60
2016,10,23,13,11,12.60
2016,10,23,13,12,12.60
2016,10,23,13,13,12.60
2016,10,23,13,14,12.60
2016,10,23,13,15,12.60
2016,10,23,13,16,12.60
2016,10,23,13,17,12.60
2016,10,23,13,18,12.60
2016,10,23,13,19,12.60
2016,10,23,13,20,12.70
2016,10,23,13,21,12.70
2016,10,23,13,22,12.70
2016,10,23,13,23,12.70
2016,10,23,13,24,12.70
2016,10,23,13,25,12.80
2016,10,23,13,26,12.80
2016,10,23,13,27,12.80
2016,10,23,13,28,12.80
2016,10,23,13,29,12.80
2016,10,23,13,30,12.80
2016,10,23,13,31,12.80
2016,10,23,13,32,12.90
2016,10,23,13,33,12.90
2016,10,23,13,34,12.90
2016,10,23,13,35,12.90
2016,10,23,13,36,12.90
2016,10,23,13,37,12.90
2016,10,23,13,38,13.00
2016,10,23,13,39,13.00
2016,10,23,13,40,13.00
2016,10,23,13,41,13.10
2016,10,23,13,42,13.10
2016,10,23,13,43,13.10
2016,10,23,13,44,13.00
2016,10,23,13,45,13.00
2016,10,23,13,46,13.00
2016,10,23,13,47,13.10
2016,10,23,13,48,13.10
2016,10,23,13,49,13.10
2016,10,23,13,50,13.10
2016,10,23,13,51,13.20
2016,10,23,13,52,13.20
2016,10,23,13,53,13.20
2016,10,23,13,54,13.20
2016,10,23,13,55,13.20
2016,10,23,13,56,13.20
2016,10,23,13,57,13.20
2016,10,23,13,58,13.20
2016,10,23,13,59,13.20
2016,10,23,14,00,13.20
2016,10,23,14,01,13.20
2016,10,23,14,02,13.10
2016,10,23,14,03,13.10
2016,10,23,14,04,13.10
2016,10,23,14,05,13.20
2016,10,23,14,06,13.20
2016,10,23,14,07,13.20
2016,10,23,14,08,13.20
2016,10,23,14,09,13.20
2016,10,23,14,10,13.10
2016,10,23,14,11,13.10
2016,10,23,14,12,13.10
2016,10,23,14,13,13.10
2016,10,23,14,14,13.10
2016,10,23,14,15,13.10
2016,10,23,14,16,13.00
2016,10,23,14,17,13.00
2016,10,23,14,18,13.00
2016,10,23,14,19,13.00
2016,10,23,14,20,13.00
2016,10,23,14,21,12.90
2016,10,23,14,22,12.90
2016,10,23,14,23,12.90
2016,10,23,14,24,12.90
2016,10,23,14,25,12.90
2016,10,23,14,26,12.90
2016,10,23,14,27,12.90
2016,10,23,14,28,12.90
2016,10,23,14,29,12.90
2016,10,23,14,30,12.90
2016,10,23,14,31,12.90
2016,10,23,14,32,12.80
2016,10,23,14,33,12.80
2016,10,23,14,34,12.90
2016,10,23,14,35,12.90
2016,10,23,14,36,12.90
2016,10,23,14,37,12.90
2016,10,23,14,38,12.90
2016,10,23,14,39,12.90
2016,10,23,14,40,12.90
2016,10,23,14,41,12.90
2016,10,23,14,42,12.90
2016,10,23,14,43,12.90
2016,10,23,14,44,12.90
2016,10,23,14,45,12.90
2016,10,23,14,46,12.90
2016,10,23,14,47,12.90
2016,10,23,14,48,12.90
2016,10,23,14,49,12.90
2016,10,23,14,50,12.90
2016,10,23,14,51,12.90
2016,10,23,14,52,12.80
2016,10,23,14,53,12.80
2016,10,23,14,54,12.80
2016,10,23,14,55,12.80
2016,10,23,14,56,12.80
2016,10,23,14,57,12.80
2016,10,23,14,58,12.80
2016,10,23,14,59,12.80
2016,10,23,15,00,12.80
2016,10,23,15,01,12.80
2016,10,23,15,02,12.80
2016,10,23,15,03,12.80
2016,10,23,15,04,12.80
2016,10,23,15,05,12.80
2016,10,23,15,06,12.80
2016,10,23,15,07,12.80
2016,10,23,15,08,12.80
2016,10,23,15,09,12.80
2016,10,23,15,10,12.80
2016,10,23,15,11,12.80
2016,10,23,15,12,12.80
2016,10,23,15,13,12.80
2016,10,23,15,14,12.80
2016,10,23,15,15,12.80
2016,10,23,15,16,12.80
2016,10,23,15,17,12.70
2016,10,23,15,18,12.70
2016,10,23,15,19,12.70
2016,10,23,15,20,12.70
2016,10,23,15,21,12.70
2016,10,23,15,22,12.70
2016,10,23,15,23,12.70
2016,10,23,15,24,12.70
2016,10,23,15,25,12.70
2016,10,23,15,26,12.70
2016,10,23,15,27,12.70
2016,10,23,15,28,12.70
2016,10,23,15,29,12.70
2016,10,23,15,30,12.70
2016,10,23,15,31,12.70
2016,10,23,15,32,12.70
2016,10,23,15,33,12.70
2016,10,23,15,34,12.70
2016,10,23,15,35,12.70
2016,10,23,15,36,12.70
2016,10,23,15,37,12.70
2016,10,23,15,38,12.70
2016,10,23,15,39,12.70
2016,10,23,15,40,12.70
2016,10,23,15,41,12.70
2016,10,23,15,42,12.70
2016,10,23,15,43,12.70
2016,10,23,15,44,12.70
2016,10,23,15,45,12.80
2016,10,23,15,46,12.80
2016,10,23,15,47,12.80
2016,10,23,15,48,12.80
2016,10,23,15,49,12.80
2016,10,23,15,50,12.80
2016,10,23,15,51,12.80
2016,10,23,15,52,12.90
2016,10,23,15,53,12.90
2016,10,23,15,54,12.90
2016,10,23,15,55,12.90
2016,10,23,15,56,12.90
2016,10,23,15,57,12.90
2016,10,23,15,58,12.90
2016,10,23,15,59,12.90
2016,10,23,16,00,12.90
2016,10,23,16,01,12.90
2016,10,23,16,02,12.90
2016,10,23,16,03,12.90
2016,10,23,16,04,12.90
2016,10,23,16,05,12.90
2016,10,23,16,06,12.90
2016,10,23,16,07,12.90
2016,10,23,16,08,12.90
2016,10,23,16,09,12.90
2016,10,23,16,10,12.90
2016,10,23,16,11,12.90
2016,10,23,16,12,12.90
2016,10,23,16,13,12.90
2016,10,23,16,14,12.90
2016,10,23,16,15,12.90
2016,10,23,16,16,12.90
2016,10,23,16,17,12.80
2016,10,23,16,18,12.80
2016,10,23,16,19,12.80
2016,10,23,16,20,12.80
2016,10,23,16,21,12.80
2016,10,23,16,22,12.80
2016,10,23,16,23,12.80
2016,10,23,16,24,12.80
2016,10,23,16,25,12.70
2016,10,23,16,26,12.70
2016,10,23,16,27,12.70
2016,10,23,16,28,12.70
2016,10,23,16,29,12.80
2016,10,23,16,30,12.80
2016,10,23,16,31,12.80
2016,10,23,16,32,12.80
2016,10,23,16,33,12.80
2016,10,23,16,34,12.80
2016,10,23,16,35,12.80
2016,10,23,16,36,12.80
2016,10,23,16,37,12.80
2016,10,23,16,38,12.80
2016,10,23,16,39,12.80
2016,10,23,16,40,12.80
2016,10,23,16,41,12.80
2016,10,23,16,42,12.80
2016,10,23,16,43,12.80
2016,10,23,16,44,12.80
2016,10,23,16,45,12.80
2016,10,23,16,46,12.80
2016,10,23,16,47,12.80
2016,10,23,16,48,12.80
2016,10,23,16,49,12.80
2016,10,23,16,50,12.80
2016,10,23,16,51,12.90
2016,10,23,16,52,12.90
2016,10,23,16,53,12.90
2016,10,23,16,54,12.90
2016,10,23,16,55,12.90
2016,10,23,16,56,12.90
2016,10,23,16,57,12.90
2016,10,23,16,58,12.90
2016,10,23,16,59,12.90
2016,10,23,17,00,12.90
2016,10,23,17,01,12.90
2016,10,23,17,02,12.90
2016,10,23,17,03,12.90
2016,10,23,17,04,12.90
2016,10,23,17,05,12.90
2016,10,23,17,06,12.90
2016,10,23,17,07,12.90
2016,10,23,17,08,12.90
2016,10,23,17,09,12.90
2016,10,23,17,10,12.90
2016,10,23,17,11,12.90
2016,10,23,17,12,12.90
2016,10,23,17,13,12.90
2016,10,23,17,14,12.90
2016,10,23,17,15,12.90
2016,10,23,17,16,12.90
